FW1650 Weather Reports


time (UTC)temp
C
wind
direction
speed
KPH
gust
KPH
rain 1hr
cm
rain 24hr
cm
rain mn
cm
humidity
%
barometer
mb
20260504190017 11 309 4.8 17.7 0.00 0.00 0.00 55 1018.7
20260504185517 11 235 6.4 17.7 0.00 0.00 0.00 55 1019.4
20260504185017 11 233 4.8 16.1 0.00 0.00 0.00 55 1019.4
20260504184016 10 286 0.0 16.1 0.00 0.00 0.00 53 1019.4
20260504183517 10 289 8.0 16.1 0.00 0.00 0.00 53 1019.0
20260504183017 11 0 0.0 8.0 0.00 0.00 0.00 52 1019.8
20260504182517 11 6 3.2 8.0 0.00 0.00 0.00 53 1019.4
20260504182016 10 353 3.2 9.7 0.00 0.00 0.00 52 1019.2
20260504181516 10 235 4.8 11.3 0.00 0.00 0.00 55 1019.1
20260504181017 10 250 8.0 16.1 0.00 0.00 0.00 58 1019.0
20260504180516 10 268 8.0 16.1 0.00 0.00 0.00 58 1019.7
20260504175515 10 321 4.8 14.5 0.00 0.00 0.00 54 1019.2
20260504175016 10 298 4.8 16.1 0.00 0.00 0.00 51 1019.2
20260504174516 10 324 6.4 16.1 0.00 0.00 0.00 59 1019.2
20260504174014 10 286 4.8 14.5 0.00 0.00 0.00 56 1019.1
20260504173017 10 279 6.4 9.7 0.00 0.00 0.00 58 1019.2
20260504172514 10 345 4.8 9.7 0.00 0.00 0.00 53 1019.4
20260504172016 10 289 3.2 17.7 0.00 0.00 0.00 52 1019.4
20260504171515 10 293 4.8 17.7 0.00 0.00 0.00 53 1019.5
20260504171014 10 0 4.8 9.7 0.00 0.00 0.00 53 1019.5
20260504151012 8 10 6.4 16.1 0.00 0.00 0.00 55 1019.5
20260504150512 8 39 6.4 16.1 0.00 0.00 0.00 56 1019.6
20260504141011 6 245 0.0 4.8 0.00 0.00 0.00 63 1019.8
20260504140511 6 245 1.6 4.8 0.00 0.00 0.00 63 1019.7
20260504110505 7 228 4.8 19.3 0.00 0.00 0.00 64 1018.2
20260504100504 7 90 4.8 6.4 0.00 0.00 0.00 57 1016.2
20260504082003 7 90 0.0 3.2 0.00 0.00 0.00 58 1016.1
20260504081502 7 90 0.0 1.6 0.00 0.00 0.00 60 1016.1
20260504081003 6 90 0.0 0.0 0.00 0.00 0.00 62 1016.1
20260504080502 6 90 0.0 0.0 0.00 0.00 0.00 64 1016.1
20260504050458 9 138 0.0 3.2 0.00 0.00 0.00 55 1016.6
20260504045959 10 138 0.0 4.8 0.00 0.00 0.00 55 1016.6
20260504045458 10 138 1.6 4.8 0.00 0.00 0.00 53 1016.6
20260504044957 9 138 3.2 6.4 0.00 0.00 0.00 54 1016.4
20260504044457 8 138 4.8 6.4 0.00 0.00 0.00 55 1016.4
20260504043457 8 138 1.6 4.8 0.00 0.00 0.00 58 1016.4
20260504042958 8 138 0.0 1.6 0.00 0.00 0.00 59 1016.4
20260504042457 8 138 0.0 1.6 0.00 0.00 0.00 61 1016.4
20260504041957 8 138 0.0 1.6 0.00 0.00 0.00 58 1016.4
20260504040957 8 138 0.0 0.0 0.00 0.00 0.00 58 1016.3
20260504040457 8 138 0.0 3.2 0.00 0.00 0.00 58 1016.3
20260504035958 9 138 1.6 3.2 0.00 0.00 0.00 58 1016.3
20260504035455 9 138 0.0 4.8 0.00 0.00 0.00 55 1016.2
20260504034956 9 138 1.6 4.8 0.00 0.00 0.00 55 1016.1
20260504034456 10 138 1.6 4.8 0.00 0.00 0.00 52 1016.1
20260504033957 10 138 4.8 4.8 0.00 0.00 0.00 52 1016.0
20260504033457 10 138 0.0 8.0 0.00 0.00 0.00 52 1016.0
20260504032956 10 138 6.4 8.0 0.00 0.00 0.00 53 1015.8
20260504031958 10 243 0.0 6.4 0.00 0.00 0.00 53 1015.7
20260504031456 11 243 0.0 4.8 0.00 0.00 0.00 53 1015.6
20260504030954 10 243 0.0 8.0 0.00 0.00 0.00 50 1015.7
20260504030455 10 243 3.2 8.0 0.00 0.00 0.00 53 1015.6
20260504025955 10 259 0.0 6.4 0.00 0.00 0.00 54 1015.6
20260504025455 11 259 0.0 6.4 0.00 0.00 0.00 54 1015.6
20260504024455 12 259 0.0 0.0 0.00 0.00 0.00 54 1015.5
20260504023955 12 259 0.0 3.2 0.00 0.00 0.00 53 1015.4
20260504023454 13 259 0.0 6.4 0.00 0.00 0.00 49 1015.4
20260504022955 13 259 4.8 6.4 0.00 0.00 0.00 46 1015.4
20260504022455 14 259 1.6 3.2 0.00 0.00 0.00 47 1015.3
20260504021454 15 259 0.0 3.2 0.00 0.00 0.00 45 1015.3
20260504020954 15 259 0.0 3.2 0.00 0.00 0.00 45 1015.3
20260504020454 16 259 0.0 3.2 0.00 0.00 0.00 46 1015.1
20260504015953 17 261 0.0 0.0 0.00 0.00 0.00 45 1015.3
20260504015455 18 261 0.0 0.0 0.00 0.00 0.00 36 1015.1
20260504014954 18 261 0.0 0.0 0.00 0.00 0.00 36 1015.1
20260504014455 19 261 0.0 0.0 0.00 0.00 0.00 28 1015.3
20260504013452 20 261 0.0 0.0 0.00 0.00 0.00 26 1015.4
20260504012953 20 261 0.0 0.0 0.00 0.00 0.00 30 1015.4
20260504011952 19 261 0.0 6.4 0.00 0.00 0.00 31 1015.5
20260504011454 19 261 1.6 8.0 0.00 0.00 0.00 32 1015.6
20260504010952 18 261 4.8 8.0 0.00 0.00 0.00 39 1015.6
20260504005953 18 261 6.4 16.1 0.00 0.00 0.00 38 1015.6
20260504005453 18 255 9.7 14.5 0.00 0.00 0.00 38 1015.7
20260504004453 19 288 6.4 11.3 0.00 0.00 0.00 31 1015.8
20260504002952 19 279 9.7 19.3 0.00 0.00 0.00 34 1016.0
20260504002453 19 299 9.7 17.7 0.00 0.00 0.00 36 1016.0
20260504001951 19 259 12.9 17.7 0.00 0.00 0.00 34 1016.1
20260504001452 20 272 4.8 11.3 0.00 0.00 0.00 32 1016.1
20260504000952 20 268 4.8 11.3 0.00 0.00 0.00 31 1016.2
20260504000452 20 293 6.4 11.3 0.00 0.00 0.00 31 1016.2
20260503235952 20 321 3.2 8.0 0.00 0.00 0.00 30 1016.3
20260503234952 20 285 8.0 14.5 0.00 0.00 0.00 35 1016.4
20260503234451 19 293 6.4 16.1 0.00 0.00 0.00 32 1016.4
20260503233951 19 269 11.3 19.3 0.00 0.00 0.00 33 1016.4
20260503233450 19 285 12.9 19.3 0.00 0.00 0.00 31 1016.6
20260503232951 19 279 11.3 20.9 0.00 0.00 0.00 30 1016.6
20260503232450 19 275 11.3 24.1 0.00 0.00 0.00 32 1016.6
20260503231951 19 262 14.5 24.1 0.00 0.00 0.00 36 1016.7
20260503230951 19 268 14.5 20.9 0.00 0.00 0.00 36 1016.8
20260503230449 19 285 14.5 20.9 0.00 0.00 0.00 36 1016.8
20260503225950 19 281 8.0 20.9 0.00 0.00 0.00 33 1016.9
20260503225449 19 257 8.0 20.9 0.00 0.00 0.00 37 1017.0
20260503224450 19 252 12.9 22.5 0.00 0.00 0.00 41 1017.0
20260503223949 19 271 12.9 20.9 0.00 0.00 0.00 36 1017.0
20260503223451 19 272 8.0 19.3 0.00 0.00 0.00 37 1017.3
20260503222948 19 269 11.3 17.7 0.00 0.00 0.00 36 1017.3
20260503222450 19 312 6.4 16.1 0.00 0.00 0.00 41 1017.4
20260503221950 19 283 9.7 24.1 0.00 0.00 0.00 35 1017.5
20260503220949 19 264 12.9 20.9 0.00 0.00 0.00 38 1017.6
20260503220448 19 233 9.7 27.4 0.00 0.00 0.00 39 1017.6
20260503215949 19 286 12.9 27.4 0.00 0.00 0.00 40 1017.7
20260503215448 19 238 11.3 19.3 0.00 0.00 0.00 43 1017.7
20260503214948 19 237 6.4 11.3 0.00 0.00 0.00 35 1018.0
20260503214449 19 310 4.8 16.1 0.00 0.00 0.00 38 1018.0
20260503213948 19 336 6.4 16.1 0.00 0.00 0.00 34 1018.1
20260503213447 18 275 4.8 14.5 0.00 0.00 0.00 43 1018.1
20260503212948 18 288 6.4 19.3 0.00 0.00 0.00 35 1018.2
20260503212446 18 240 6.4 22.5 0.00 0.00 0.00 36 1018.3
20260503211949 18 244 11.3 22.5 0.00 0.00 0.00 40 1018.4
20260503210948 18 278 14.5 20.9 0.00 0.00 0.00 35 1018.5
20260503210447 18 274 3.2 14.5 0.00 0.00 0.00 39 1018.7
20260503205948 18 272 9.7 16.1 0.00 0.00 0.00 41 1018.9
20260503205447 18 300 4.8 24.1 0.00 0.00 0.00 43 1018.9
20260503204447 18 231 8.0 20.9 0.00 0.00 0.00 40 1013.7
20260503203447 18 207 3.2 16.1 0.00 0.00 0.00 43 1015.6
20260503202946 18 264 9.7 20.9 0.00 0.00 0.00 43 1017.4
20260503202446 18 266 9.7 20.9 0.00 0.00 0.00 45 1017.7
20260503201945 18 306 6.4 11.3 0.00 0.00 0.00 37 1017.7
20260503201445 18 25 1.6 8.0 0.00 0.00 0.00 45 1017.0
20260503200946 18 227 3.2 9.7 0.00 0.00 0.00 39 1016.8
20260503200444 18 269 3.2 14.5 0.00 0.00 0.00 44 1017.6
20260503195945 18 282 6.4 14.5 0.00 0.00 0.00 38 1017.5
20260503195444 17 0 3.2 11.3 0.00 0.00 0.00 39 1018.1
20260503194945 18 298 6.4 14.5 0.00 0.00 0.00 41 1019.5
20260503194445 18 6 6.4 16.1 0.00 0.00 0.00 41 1019.6
20260503193944 17 10 8.0 16.1 0.00 0.00 0.00 45 1019.5
20260503193445 17 16 3.2 11.3 0.00 0.00 0.00 38 1020.5
20260503192444 17 289 9.7 19.3 0.00 0.00 0.00 41 1021.9
20260503191445 17 20 3.2 14.5 0.00 0.00 0.00 41 1022.2
20260503190944 17 0 6.4 14.5 0.00 0.00 0.00 39 1020.3